Flag for Brazil Weather past 2 weeks in Pirassununga, São Paulo, Brazil

Now
55 °F

Fog.


Feels Like: 55 °F
Forecast: 51 / 75 °F
Wind: 3 mph from Northeast

Location: Pirassununga Airport

Current Time: May 30, 2015 at 10:06:44 AM

Latest Report: May 30, 2015 at 9:00 AM


Visibility: 0 mi

Pressure: 30.09 "Hg

Humidity: 100%

Dew point: 55 °F

Location of PirassunungaLocation

Historic Weather in Pirassununga — Graph

°F

Pirassununga temperature yesterday

Maximum temperature yesterday: 77 °F (at 2:00 PM)
Minimum temperature yesterday: 55 °F (at 11:00 PM)
Average temperature yesterday: 67 °F

Past Weeks' High & Low Weather Summary

 TemperatureHumidityPressure
High88 °F (May 25, 2:00 PM)100% (May 15, 8:00 AM)30.30 "Hg (May 15, 8:00 AM)
Low50 °F (May 16, 7:00 AM)40% (May 25, 3:00 PM)29.95 "Hg (May 29, 2:00 PM)
Average70 °F77%30.14 "Hg
* Reported May 15 8:00 AM — May 30 8:00 AM, Pirassununga, Weather by CustomWeather, © 2015

Note: Actual official high and low records may vary slightly from our data, if they occured in-between our weather recording intervals... More about our weather records

Advertising

Pirassununga weather history for previous 24 hours

 ConditionsComfort  
Time TempWeatherWind HumidityBarometerVisibility
8:00 AM
Sat, May 30
55 °FFog.No wind100%30.09 "Hg0 mi
7:00 AM54 °FFog.No wind100%30.07 "Hg0 mi
6:00 AM54 °FFog.No wind100%30.04 "Hg0 mi
11:00 PM
Fri, May 29
55 °FClear.No wind94%30.04 "Hg10 mi
10:00 PM57 °FClear.No wind94%30.04 "Hg10 mi
9:00 PM59 °FClear.No wind88%30.01 "Hg10 mi
8:00 PM61 °FClear.2 mph88%30.01 "Hg10 mi
7:00 PM64 °FPassing clouds.2 mph83%29.98 "HgN/A
6:00 PM68 °FClear.3 mph73%29.98 "Hg10 mi
5:00 PM73 °FPassing clouds.9 mph61%29.95 "HgN/A
4:00 PM73 °FScattered clouds.9 mph65%29.95 "HgN/A
3:00 PM77 °FScattered clouds.14 mph57%29.95 "HgN/A
2:00 PM77 °FPartly sunny.15 mph57%29.95 "HgN/A
1:00 PM75 °FPartly sunny.9 mph65%29.98 "HgN/A
12:00 PM72 °FBroken clouds.7 mph73%30.01 "HgN/A
11:00 AM72 °FPartly sunny.9 mph78%30.01 "HgN/A
10:00 AM68 °FBroken clouds.9 mph88%30.04 "HgN/A
Weather by CustomWeather, © 2015

See weather overviewHow to use our weather pages